Home > Weather > Yonkers > Past weeks

Flag for USA Past Weather in Yonkers, New York, USA — Yesterday and Last 2 Weeks

Now
76 °F

Clear.


Feels Like: 76 °F
Forecast: 77 / 92 °F
Wind: 7 mph from Southwest

Location: Teterboro Airport

Current Time: Jul 25, 2016 at 10:41:57 PM

Latest Report: Jul 25, 2016 at 9:51 PM


Visibility: 10 mi

Pressure: 29.86 "Hg

Humidity: 88%

Dew Point: 72 °F

Location of YonkersLocation

Past Weather in Yonkers — Graph

°F

Yonkers Temperature Yesterday

Maximum temperature yesterday: 94 °F (at 2:51 PM)
Minimum temperature yesterday: 74 °F (at 5:51 AM)
Average temperature yesterday: 85 °F

High & Low Weather Summary for the Past Weeks

 TemperatureHumidityPressure
High97 °F (Jul 22, 3:51 PM)94% (Jul 25, 6:58 PM)30.23 "Hg (Jul 25, 6:58 PM)
Low65 °F (Jul 11, 4:51 AM)22% (Jul 23, 4:51 PM)29.76 "Hg (Jul 22, 6:51 PM)
Average81 °F57%29.99 "Hg
* Reported Jul 10 8:51 PM — Jul 25 8:51 PM, Yonkers, Weather by CustomWeather, © 2016

Note: Actual official high and low records may vary slightly from our data, if they occured in-between our weather recording intervals... More about our weather records

Advertising

Yonkers Weather History for the Previous 24 Hours

Scroll right to see more
 ConditionsComfort  
Time TempWeatherWind HumidityBarometerVisibility
8:51 PM
Mon, Jul 25
76 °FLight rain. Passing clouds.5 mph85%29.85 "Hg10 mi
7:51 PM75 °FScattered clouds.5 mph85%29.86 "Hg8 mi
6:58 PM75 °FFog.12 mph94%29.90 "Hg4 mi
6:51 PM77 °FOvercast.7 mph88%29.89 "Hg7 mi
6:03 PM79 °FThunderstorms. Fog.12 mph84%29.89 "Hg3 mi
5:51 PM81 °FThunderstorms. Fog.9 mph85%29.86 "Hg3 mi
4:51 PM83 °FLight rain. Scattered clouds.5 mph72%29.82 "Hg10 mi
4:04 PM82 °FThunderstorms. Partly sunny.8 mph66%29.84 "Hg4 mi
3:51 PM90 °FBroken clouds.6 mph47%29.80 "Hg10 mi
2:51 PM92 °FPartly sunny.9 mph51%29.83 "Hg10 mi
1:51 PM91 °FSunny.8 mph52%29.85 "Hg10 mi
12:51 PM89 °FSunny.9 mph55%29.86 "Hg10 mi
11:51 AM87 °FSunny.12 mph59%29.89 "Hg10 mi
10:51 AM84 °FScattered clouds.9 mph63%29.91 "Hg10 mi
9:51 AM83 °FSunny.6 mph65%29.90 "Hg10 mi
8:51 AM84 °FPartly sunny.9 mph61%29.92 "Hg10 mi
7:51 AM80 °FScattered clouds.3 mph67%29.92 "Hg10 mi
6:51 AM78 °FCloudy.5 mph71%29.93 "Hg10 mi
5:51 AM79 °FLight rain. Mostly cloudy.8 mph67%29.93 "Hg8 mi
4:51 AM81 °FOvercast.8 mph56%29.91 "Hg10 mi
3:51 AM81 °FOvercast.6 mph56%29.92 "Hg10 mi
2:51 AM81 °FClear.5 mph56%29.92 "Hg10 mi
1:51 AM80 °FClear.5 mph62%29.93 "Hg10 mi
12:51 AM81 °FClear.5 mph58%29.94 "Hg10 mi
11:51 PM
Sun, Jul 24
82 °FClear.8 mph58%29.94 "Hg10 mi
10:51 PM83 °FClear.7 mph57%29.95 "Hg10 mi
Weather by CustomWeather, © 2016

See weather overviewHow to use our weather pages